Weather History for KCNK - October, 2013

Change the Weather History Date:

Saturday, October 5, 2013

  Actual Average Record
Temperature  
Mean Temperature 51 °F 60 °F  
Max Temperature 60 °F 72 °F 102 °F (1947)
Min Temperature 41 °F 48 °F 32 °F (1932)
Degree Days  
Heating Degree Days 14 7  
Month to date heating degree days 14 32  
Since 1 July heating degree days 35 105  
Cooling Degree Days 0 1  
Month to date cooling degree days 21 9  
Year to date cooling degree days 1348 1335  
Moisture  
Dew Point 30 °F    
Average Humidity 51    
Maximum Humidity 67    
Minimum Humidity 35    
Precipitation  
Precipitation 0.00 in 0.07 in 1.94 in (1959)
Month to date precipitation 0.05 0.39  
Year to date precipitation 24.75 24.40  
Snow  
Snow 0.00 in 0.00 in 0.00 in ()
Month to date snowfall 0.0 0.0  
Year to date snowfall 20.3 13.7  
Since 1 July snowfall 0.0 0.0  
Snow Depth 0.00 in    
Sea Level Pressure  
Sea Level Pressure 29.99 in    
Wind  
Wind Speed 17 mph (West)    
Max Wind Speed 31 mph    
Max Gust Speed 40 mph    
Visibility 10 miles    
Events      
T = Trace of Precipitation, MM = Missing Value Source: NWS Daily Summary

Daily Weather History Graph

Daily Weather History Graph

Search for Another Location

Airport or City:

Trip Planner

Search our weather history database for the weather conditions in past years. The results will help you decide how hot, cold, wet, or windy it might be!

Date:

Astronomy

Oct. 05, 2013 Rise Set
Actual Time 7:30 AM CDT 7:06 PM CDT
Civil Twilight 7:04 AM CDT 7:33 PM CDT
Nautical Twilight 6:32 AM CDT 8:04 PM CDT
Astronomical Twilight 6:01 AM CDT 8:35 PM CDT
Moon 8:11 AM CDT 7:26 PM CDT
Length of Visible Light 12h 29m
Length of Day
11h 35m
New Moon, 1% of the Moon is Illuminated
Oct 5
New Moon
Oct 11
First Quarter
Oct 18
Full
Oct 26
Last Quarter
Nov 3
New

Hourly Weather History & Observations

Time (CDT) Temp. Windchill Dew Point Humidity Pressure Visibility Wind Dir Wind Speed Gust Speed Precip Events Conditions
12:55 AM 46.9 °F - 30.9 °F 54% 30.00 in 10.0 mi WNW 12.7 mph - N/A   Mostly Cloudy
1:55 AM 46.0 °F 40.6 °F 30.0 °F 54% 30.01 in 10.0 mi WNW 11.5 mph - N/A   Mostly Cloudy
2:55 AM 43.0 °F 37.7 °F 30.0 °F 60% 30.01 in 10.0 mi West 9.2 mph - N/A   Clear
3:55 AM 42.1 °F 36.6 °F 30.9 °F 65% 30.01 in 10.0 mi West 9.2 mph - N/A   Partly Cloudy
4:55 AM 43.0 °F 37.2 °F 32.0 °F 65% 30.02 in 10.0 mi West 10.4 mph - N/A   Mostly Cloudy
5:55 AM 44.1 °F 37.1 °F 32.0 °F 63% 30.02 in 10.0 mi West 15.0 mph - N/A   Partly Cloudy
6:55 AM 44.1 °F 37.1 °F 32.0 °F 63% 30.02 in 10.0 mi West 15.0 mph - N/A   Mostly Cloudy
7:55 AM 44.1 °F 36.5 °F 32.0 °F 63% 30.01 in 10.0 mi West 17.3 mph 24.2 mph N/A   Overcast
8:55 AM 45.0 °F 38.2 °F 32.0 °F 60% 30.03 in 10.0 mi West 15.0 mph 24.2 mph N/A   Partly Cloudy
9:55 AM 46.0 °F 39.3 °F 30.0 °F 54% 30.03 in 10.0 mi West 16.1 mph 26.5 mph N/A   Mostly Cloudy
10:55 AM 50.0 °F - 30.9 °F 48% 30.04 in 10.0 mi West 16.1 mph 21.9 mph N/A   Clear
11:55 AM 53.1 °F - 28.0 °F 38% 30.03 in 10.0 mi West 26.5 mph 34.5 mph N/A   Clear
12:55 PM 55.9 °F - 28.0 °F 34% 30.01 in 10.0 mi West 26.5 mph 36.8 mph N/A   Clear
1:55 PM 57.9 °F - 30.0 °F 35% 29.98 in 10.0 mi West 18.4 mph 32.2 mph N/A   Mostly Cloudy
2:55 PM 55.9 °F - 28.9 °F 36% 29.96 in 10.0 mi West 24.2 mph 29.9 mph N/A   Overcast
3:55 PM 55.0 °F - 28.9 °F 37% 29.95 in 10.0 mi WNW 21.9 mph 34.5 mph N/A   Overcast
4:55 PM 55.0 °F - 28.9 °F 37% 29.96 in 10.0 mi WNW 24.2 mph 35.7 mph N/A   Mostly Cloudy
5:55 PM 53.1 °F - 28.9 °F 40% 29.96 in 10.0 mi WNW 20.7 mph 27.6 mph N/A   Partly Cloudy
6:55 PM 50.0 °F - 28.9 °F 44% 29.97 in 10.0 mi WNW 17.3 mph 26.5 mph N/A   Clear
7:55 PM 48.0 °F - 30.9 °F 52% 29.96 in 10.0 mi West 11.5 mph - N/A   Mostly Cloudy
8:55 PM 46.0 °F 39.0 °F 30.9 °F 56% 29.97 in 10.0 mi WNW 17.3 mph - N/A   Clear
9:55 PM 45.0 °F 37.9 °F 30.9 °F 58% 29.98 in 10.0 mi WNW 16.1 mph 23.0 mph N/A   Clear
10:55 PM 45.0 °F 37.6 °F 32.0 °F 60% 29.96 in 10.0 mi WNW 17.3 mph - N/A   Mostly Cloudy
11:55 PM 46.0 °F 38.8 °F 32.0 °F 58% 29.95 in 10.0 mi WNW 18.4 mph 32.2 mph N/A   Overcast